CST,Max TemperatureF,Mean TemperatureF,Min TemperatureF,Max Dew PointF,MeanDew PointF,Min DewpointF,Max Humidity, Mean Humidity, Min Humidity, Max Sea Level PressureIn, Mean Sea Level PressureIn, Min Sea Level PressureIn, Max VisibilityMiles, Mean VisibilityMiles, Min VisibilityMiles, Max Wind SpeedMPH, Mean Wind SpeedMPH, Max Gust SpeedMPH,PrecipitationIn, CloudCover, Events, WindDirDegrees
2013-11-1,50,39,28,36,31,25,92,74,56,29.96,29.71,29.52,10,8,5,17,7,21,T,4,Rain,298
2013-11-2,52,40,27,36,31,27,96,70,44,30.08,30.02,29.96,10,9,4,13,6,17,0.00,2,,224
2013-11-3,55,48,40,35,33,30,76,59,41,29.98,29.76,29.65,10,10,10,37,19,49,0.00,1,,146
2013-11-4,48,37,26,35,28,19,85,65,45,30.13,29.87,29.66,10,10,10,23,11,30,0.00,4,,248
2013-11-5,38,31,23,22,20,16,75,64,52,30.26,30.20,30.15,10,10,9,13,7,16,0.00,0,,248
2013-11-6,41,29,17,28,21,14,84,72,59,30.19,30.15,30.11,10,9,6,8,2,9,T,4,,62
2013-11-7,43,31,18,24,20,14,84,68,51,30.28,30.21,30.14,10,8,5,12,5,15,T,4,,268
2013-11-8,45,34,23,35,29,20,92,66,40,30.13,29.76,29.59,10,8,2,30,12,37,0.24,7,Rain,150
2013-11-9,40,37,34,36,29,25,85,70,54,30.32,29.98,29.64,10,10,7,32,18,43,T,8,Snow,298
2013-11-10,39,29,18,28,21,9,88,74,59,30.41,30.27,30.14,10,10,2,29,12,36,T,5,Snow,275
2013-11-11,19,13,7,9,5,2,80,66,51,30.83,30.67,30.42,10,10,4,24,12,29,T,6,Snow,339
2013-11-12,38,23,7,16,9,1,80,55,29,30.83,30.59,30.25,10,10,10,20,13,24,0.00,0,,196
2013-11-13,61,43,24,34,27,16,82,59,36,30.21,29.93,29.81,10,10,10,20,10,23,0.00,0,,217
2013-11-14,47,37,26,36,31,24,92,76,60,29.86,29.81,29.77,10,10,6,14,6,17,T,4,,262
2013-11-15,51,36,21,39,29,19,96,76,56,29.81,29.67,29.42,10,6,0,22,11,28,0.03,2,Fog-Rain,172
2013-11-16,47,40,33,39,36,31,89,81,73,29.40,29.33,29.27,10,5,2,17,8,24,0.08,7,Rain,65
2013-11-17,39,33,27,36,28,19,92,81,69,29.98,29.60,29.33,10,8,3,25,17,31,0.02,8,Rain,324
2013-11-18,33,29,25,20,18,17,75,67,58,30.22,30.16,30.00,10,10,10,24,8,29,0.00,5,,354
2013-11-19,48,37,25,34,27,19,81,67,53,30.16,29.81,29.60,10,10,10,29,19,39,0.00,0,,149
2013-11-20,45,33,20,33,23,13,85,75,65,30.23,29.93,29.65,10,9,6,29,16,35,0.00,6,,346
2013-11-21,20,12,4,12,7,-1,80,71,61,30.70,30.50,30.21,10,8,2,31,17,37,0.01,6,Snow,331
2013-11-22,22,12,2,16,5,-4,84,73,61,30.89,30.65,30.51,10,8,0,23,13,29,0.02,4,Snow,317
2013-11-23,11,3,-6,1,-3,-11,82,74,66,31.02,30.88,30.66,10,10,5,17,6,21,0.00,2,,289
2013-11-24,42,26,9,27,15,1,73,61,48,30.60,30.10,29.84,10,10,10,26,16,36,T,2,,190
2013-11-25,37,30,22,27,22,10,85,74,63,30.24,30.06,29.87,10,10,6,29,15,37,T,7,Snow,308
2013-11-26,22,13,4,11,7,1,80,69,57,30.52,30.42,30.26,10,10,7,26,14,32,T,3,Snow,332
2013-11-27,25,14,3,12,7,-1,88,67,46,30.48,30.21,30.03,10,10,8,24,10,31,0.00,5,,161
2013-11-28,23,16,8,14,8,4,83,69,54,30.53,30.41,30.17,10,10,9,26,11,32,0.00,3,,360
2013-11-29,36,24,12,19,14,8,80,64,47,30.49,30.23,30.03,10,10,7,25,14,32,0.00,0,,157
2013-11-30,28,24,19,21,19,16,92,81,69,30.27,30.17,30.04,8,5,3,14,7,17,0.00,6,,353